Tracking 29892 objects as of 21-Nov-2024
HD Live streaming from Space Station
objects crossing your sky now

SL-8 DEB

Track SL-8 DEB now!
10-day predictions


NORAD ID: 39840
Int'l Code: 1991-009DY
Perigee: 966.1 km
Apogee: 1,127.6 km
Inclination: 73.8 °
Period: 106.0 minutes
Semi major axis: 7417 km
RCS: 0.0175 m2 (small)
Launch date: February 12, 1991
Source: Commonwealth of Independent States (former USSR) (CIS)
Launch site: PLESETSK MISSILE AND SPACE COMPLEX (PKMTR)

Note: This is SATELLITE DEBRIS
Your satellite tracking list
Your tracking list is empty




NASA's NSSDC Master Catalog

Two Line Element Set (TLE):
1 39840U 91009DY  24322.34118351  .00005872  00000-0  77343-2 0  9990
2 39840  73.7929 318.0928 0108885 189.3242 235.6776 13.58898873515482
Source of the keplerian elements: AFSPC